Inquirer Daily News

Weather

Get conditions and forecasts for any City, State, ZIP code or Country:  
Trenton, NJ
on Thursday, December 27, 2012

Thursday
Previous Day Next Day
Daily Summary
 ActualAverageRecord
Temperature
Mean Temperature °F 32°F  
Max Temperature 41°F 40°F 63°F (1949)
Min Temperature 32°F 24°F 3°F (1989)
Degree Days
Heating Degree Days 28 33  
Month to date heating degree days 619 787  
Since 1 July heating degree days 1626 1763  
Cooling Degree Days 0 0  
Month to date cooling degree days 0 0  
Year to date cooling degree days 1234 965  
Moisture
Dew Point 30°F   
Average Humidity 74    
Maximum Humidity 92    
Minimum Humidity 56    
Precipitation
Precipitation 0.06 in 0.09 in 1.82 in (1894)
Month to date precipitation 4.02 3.37  
Year to date precipitation 37.25 46.11  
Wind
Wind Speed 17 mph   
Max Wind Speed 30 mph   
Max Gust Speed 39 mph   
Visibility 9 miles   
Events Rain   

Key: T is trace of precipitation, MM is missing value
Source: NWS Daily Summary
Time(EST)TemperatureDew PointHumidity Pressure Visibility Wind DirectionWind SpeedGust SpeedPrecipitationEvents Conditions
12:06 AM 37.4°F 35.6°F 93% 29.37 in 5.0 miles ENE 28.8 mph 38.0 mph 0.01 in Rain Light Rain
12:26 AM 37.4°F 35.6°F 93% 29.34 in 10.0 miles ENE 25.3 mph 39.1 mph 0.01 in Rain Light Rain
12:53 AM 39.0°F 36.0°F 89% 29.31 in 10.0 miles ENE 28.8 mph 38.0 mph 0.01 in   Overcast
1:05 AM 39.2°F 35.6°F 87% 29.32 in 10.0 miles ENE 20.7 mph 38.0 mph N/A   Overcast
1:53 AM 39.0°F 36.0°F 89% 29.30 in 10.0 miles ENE 21.9 mph 35.7 mph N/A   Overcast
2:53 AM 39.9°F 37.0°F 89% 29.27 in 10.0 miles ENE 23.0 mph 33.4 mph N/A   Overcast
3:53 AM 41.0°F 37.0°F 86% 29.27 in 10.0 miles NE 16.1 mph 29.9 mph 0.03 in   Overcast
4:53 AM 39.9°F 37.0°F 89% 29.27 in 10.0 miles ENE 13.8 mph 24.2 mph 0.01 in   Overcast
5:53 AM 39.0°F 37.0°F 93% 29.33 in 10.0 miles North 8.1 mph - 0.00 in Rain Light Rain
6:38 AM 39.2°F 37.4°F 93% 29.35 in 7.0 miles North 8.1 mph - 0.01 in Rain Light Rain
6:45 AM 37.4°F 35.6°F 93% 29.35 in 7.0 miles NNW 12.7 mph 18.4 mph 0.02 in Rain Light Rain
6:53 AM 37.0°F 34.0°F 89% 29.34 in 6.0 miles NNW 11.5 mph 19.6 mph 0.02 in Rain Light Rain
7:24 AM 37.4°F 33.8°F 87% 29.37 in 10.0 miles North 10.4 mph 20.7 mph 0.00 in Rain Light Rain
7:53 AM 37.0°F 34.0°F 89% 29.38 in 10.0 miles North 13.8 mph 24.2 mph 0.00 in Rain Light Rain
8:53 AM 36.0°F 34.0°F 93% 29.44 in 4.0 miles NNW 15.0 mph 21.9 mph 0.00 in Rain Light Rain
9:03 AM 35.6°F 32.0°F 87% 29.46 in 7.0 miles NNW 15.0 mph 27.6 mph 0.00 in Rain Light Rain
9:27 AM 35.6°F 32.0°F 87% 29.48 in 8.0 miles NNW 18.4 mph 25.3 mph 0.00 in   Overcast
9:53 AM 35.1°F 30.9°F 85% 29.49 in 7.0 miles NW 17.3 mph 26.5 mph 0.00 in   Overcast
10:53 AM 37.0°F 30.0°F 76% 29.51 in 10.0 miles NNW 12.7 mph 21.9 mph 0.00 in   Overcast
11:51 AM 37.4°F 28.4°F 70% 29.54 in 10.0 miles NW 15.0 mph 28.8 mph N/A   Overcast
11:53 AM 37.0°F 28.0°F 70% 29.53 in 10.0 miles NW 20.7 mph 28.8 mph N/A   Overcast
12:23 PM 37.4°F 26.6°F 65% 29.55 in 10.0 miles NW 23.0 mph 35.7 mph N/A   Overcast
12:53 PM 36.0°F 26.1°F 67% 29.55 in 10.0 miles NNW 21.9 mph 33.4 mph N/A   Overcast
1:01 PM 35.6°F 26.6°F 70% 29.56 in 10.0 miles NW 20.7 mph 33.4 mph N/A   Overcast
1:53 PM 36.0°F 26.1°F 67% 29.57 in 10.0 miles NNW 13.8 mph 29.9 mph N/A   Overcast
2:16 PM 35.6°F 24.8°F 65% 29.59 in 10.0 miles NNW 16.1 mph 29.9 mph N/A   Overcast
2:53 PM 36.0°F 25.0°F 64% 29.60 in 10.0 miles NNW 17.3 mph 29.9 mph N/A   Overcast
3:53 PM 35.1°F 24.1°F 64% 29.64 in 10.0 miles NW 19.6 mph 28.8 mph N/A   Overcast
4:53 PM 35.1°F 24.1°F 64% 29.68 in 10.0 miles NNW 16.1 mph 20.7 mph N/A   Overcast
5:53 PM 36.0°F 23.0°F 59% 29.72 in 10.0 miles NNW 15.0 mph 26.5 mph N/A   Overcast
7:53 PM 33.1°F 19.9°F 59% 29.79 in 10.0 miles NNW 15.0 mph 24.2 mph N/A   Clear
8:53 PM 32.0°F 19.9°F 61% 29.82 in 10.0 miles NNW 15.0 mph 23.0 mph N/A   Scattered Clouds
9:53 PM 32.0°F 21.0°F 64% 29.86 in 10.0 miles NW 16.1 mph 23.0 mph N/A   Overcast
10:53 PM 32.0°F 21.0°F 64% 29.87 in 10.0 miles North 18.4 mph 25.3 mph N/A   Overcast
11:53 PM 32.0°F 21.0°F 64% 29.88 in 10.0 miles NNW 13.8 mph 23.0 mph N/A   Overcast
Astronomy
Sunrise:07:21 AM (EST) Moon Rise:04:21 PM (EST)12/27
Sunset:04:40 PM (EST) Moon Set:06:30 AM (EST)12/27
Moon Phase
Dec. 27 Dec. 28 Jan. 04 Jan. 11 Jan. 18

Copyright © 2014 The Weather Underground, Inc.